| time (UTC) | temp C | wind direction | speed KPH | gust KPH | rain 1hr cm | rain 24hr cm | rain mn cm | humidity % | barometer mb |
| 20260504100117 | 23 | 135 | 9.7 | 12.9 | 0.00 | 0.00 | 0.00 | 31 | 1015.7 |
| 20260504090113 | 22 | 90 | 8.0 | 11.3 | 0.00 | 0.00 | 0.00 | 32 | 1016.1 |
| 20260504081111 | 21 | 90 | 6.4 | 9.7 | 0.00 | 0.00 | 0.00 | 44 | 1016.1 |
| 20260504080111 | 21 | 135 | 6.4 | 8.0 | 0.00 | 0.00 | 0.00 | 44 | 1016.3 |
| 20260504070107 | 19 | 135 | 6.4 | 8.0 | 0.00 | 0.00 | 0.00 | 46 | 1016.0 |
| 20260504060109 | 16 | 180 | 3.2 | 3.2 | 0.00 | 0.00 | 0.00 | 63 | 1015.7 |
| 20260504050106 | 14 | 135 | 3.2 | 4.8 | 0.00 | 0.00 | 0.00 | 67 | 1015.3 |
| 20260504045108 | 13 | 315 | 3.2 | 3.2 | 0.00 | 0.00 | 0.00 | 69 | 1015.2 |
| 20260504044106 | 13 | 315 | 1.6 | 3.2 | 0.00 | 0.00 | 0.00 | 70 | 1015.2 |
| 20260504043105 | 12 | 0 | 3.2 | 4.8 | 0.00 | 0.00 | 0.00 | 71 | 1015.1 |
| 20260504042106 | 12 | 0 | 3.2 | 3.2 | 0.00 | 0.00 | 0.00 | 74 | 1015.0 |
| 20260504041106 | 12 | 315 | 3.2 | 4.8 | 0.00 | 0.00 | 0.00 | 74 | 1014.9 |
| 20260504040106 | 12 | 315 | 3.2 | 3.2 | 0.00 | 0.00 | 0.00 | 73 | 1015.0 |
| 20260504035106 | 12 | 315 | 0.0 | 0.0 | 0.00 | 0.00 | 0.00 | 72 | 1015.1 |
| 20260504034106 | 12 | 315 | 3.2 | 3.2 | 0.00 | 0.00 | 0.00 | 72 | 1015.0 |
| 20260504033107 | 12 | 0 | 3.2 | 3.2 | 0.00 | 0.00 | 0.00 | 70 | 1015.1 |
| 20260504032106 | 12 | 0 | 3.2 | 6.4 | 0.00 | 0.00 | 0.00 | 70 | 1015.0 |
| 20260504031107 | 12 | 0 | 4.8 | 6.4 | 0.00 | 0.00 | 0.00 | 70 | 1015.2 |
| 20260504030105 | 12 | 0 | 3.2 | 4.8 | 0.00 | 0.00 | 0.00 | 70 | 1015.1 |
| 20260504025103 | 12 | 0 | 3.2 | 4.8 | 0.00 | 0.00 | 0.00 | 70 | 1015.2 |
| 20260504024103 | 12 | 0 | 4.8 | 6.4 | 0.00 | 0.00 | 0.00 | 69 | 1015.1 |
| 20260504023103 | 12 | 45 | 3.2 | 4.8 | 0.00 | 0.00 | 0.00 | 69 | 1015.2 |
| 20260504022102 | 12 | 45 | 3.2 | 3.2 | 0.00 | 0.00 | 0.00 | 68 | 1015.1 |
| 20260504021102 | 13 | 0 | 1.6 | 3.2 | 0.00 | 0.00 | 0.00 | 67 | 1015.2 |
| 20260504020104 | 13 | 0 | 3.2 | 3.2 | 0.00 | 0.00 | 0.00 | 67 | 1015.1 |
| 20260504015105 | 13 | 90 | 1.6 | 3.2 | 0.00 | 0.00 | 0.00 | 66 | 1015.2 |
| 20260504014105 | 13 | 45 | 3.2 | 4.8 | 0.00 | 0.00 | 0.00 | 67 | 1015.2 |
| 20260504013105 | 13 | 0 | 6.4 | 6.4 | 0.00 | 0.00 | 0.00 | 67 | 1015.3 |
| 20260504012105 | 13 | 0 | 4.8 | 6.4 | 0.00 | 0.00 | 0.00 | 66 | 1015.4 |
| 20260504011106 | 13 | 0 | 4.8 | 6.4 | 0.00 | 0.00 | 0.00 | 64 | 1015.3 |
| 20260504010105 | 14 | 22 | 4.8 | 6.4 | 0.00 | 0.00 | 0.00 | 63 | 1015.4 |
| 20260504005105 | 14 | 90 | 1.6 | 3.2 | 0.00 | 0.00 | 0.00 | 62 | 1015.4 |
| 20260504004105 | 14 | 90 | 1.6 | 3.2 | 0.00 | 0.00 | 0.00 | 63 | 1015.4 |
| 20260504003105 | 14 | 135 | 0.0 | 0.0 | 0.00 | 0.00 | 0.00 | 63 | 1015.5 |
| 20260504002106 | 14 | 90 | 1.6 | 3.2 | 0.00 | 0.00 | 0.00 | 63 | 1015.5 |
| 20260504001105 | 14 | 90 | 3.2 | 3.2 | 0.00 | 0.00 | 0.00 | 63 | 1015.5 |
| 20260504000105 | 14 | 90 | 3.2 | 3.2 | 0.00 | 0.00 | 0.00 | 63 | 1015.3 |
| 20260503235105 | 14 | 45 | 3.2 | 4.8 | 0.00 | 0.00 | 0.00 | 63 | 1015.5 |
| 20260503234105 | 14 | 90 | 3.2 | 4.8 | 0.00 | 0.00 | 0.00 | 63 | 1015.5 |
| 20260503233106 | 14 | 90 | 3.2 | 3.2 | 0.00 | 0.00 | 0.00 | 62 | 1015.5 |
| 20260503232105 | 14 | 90 | 6.4 | 6.4 | 0.00 | 0.00 | 0.00 | 62 | 1015.4 |
| 20260503231105 | 14 | 22 | 3.2 | 6.4 | 0.00 | 0.00 | 0.00 | 62 | 1015.6 |
| 20260503230105 | 15 | 45 | 3.2 | 3.2 | 0.00 | 0.00 | 0.00 | 62 | 1015.5 |
| 20260503225104 | 15 | 45 | 3.2 | 3.2 | 0.00 | 0.00 | 0.00 | 62 | 1015.5 |
| 20260503224105 | 15 | 0 | 3.2 | 4.8 | 0.00 | 0.00 | 0.00 | 62 | 1015.6 |
| 20260503223106 | 15 | 338 | 3.2 | 4.8 | 0.00 | 0.00 | 0.00 | 62 | 1015.5 |
| 20260503222105 | 15 | 315 | 3.2 | 3.2 | 0.00 | 0.00 | 0.00 | 62 | 1015.6 |
| 20260503221105 | 15 | 0 | 3.2 | 3.2 | 0.00 | 0.00 | 0.00 | 62 | 1015.5 |
| 20260503220104 | 15 | 315 | 3.2 | 4.8 | 0.00 | 0.00 | 0.00 | 61 | 1015.5 |
| 20260503215104 | 15 | 315 | 4.8 | 6.4 | 0.00 | 0.00 | 0.00 | 61 | 1015.6 |
| 20260503214105 | 15 | 315 | 3.2 | 3.2 | 0.00 | 0.00 | 0.00 | 61 | 1015.6 |
| 20260503213104 | 15 | 315 | 1.6 | 3.2 | 0.00 | 0.00 | 0.00 | 60 | 1015.5 |
| 20260503212105 | 16 | 315 | 0.0 | 0.0 | 0.00 | 0.00 | 0.00 | 58 | 1015.4 |
| 20260503211106 | 16 | 315 | 1.6 | 3.2 | 0.00 | 0.00 | 0.00 | 57 | 1015.4 |
| 20260503210105 | 16 | 315 | 1.6 | 1.6 | 0.00 | 0.00 | 0.00 | 56 | 1015.3 |
| 20260503205105 | 17 | 270 | 3.2 | 4.8 | 0.00 | 0.00 | 0.00 | 55 | 1015.4 |
| 20260503204105 | 17 | 315 | 4.8 | 6.4 | 0.00 | 0.00 | 0.00 | 54 | 1015.3 |
| 20260503203105 | 17 | 338 | 3.2 | 4.8 | 0.00 | 0.00 | 0.00 | 49 | 1015.3 |